TimeEST,TemperatureF,Dew PointF,Humidity,Sea Level PressureIn,VisibilityMPH,Wind Direction,Wind SpeedMPH,Gust SpeedMPH,PrecipitationIn,Events,Conditions,WindDirDegrees,DateUTC
12:15 AM,10.6,6.6,84,29.99,3.0,ESE,4.6,-,N/A,Snow,Light Snow,110,2014-02-16 05:15:00
12:34 AM,10.8,6.8,84,30.00,2.5,ESE,3.5,-,N/A,Snow,Light Snow,120,2014-02-16 05:34:00
12:54 AM,11.1,7.5,85,30.00,1.8,ESE,3.5,-,N/A,Snow,Light Snow,120,2014-02-16 05:54:00
1:15 AM,11.3,7.7,85,30.00,1.5,East,3.5,-,N/A,Snow,Light Snow,80,2014-02-16 06:15:00
1:34 AM,11.3,8.2,87,30.00,1.2,Calm,Calm,-,N/A,Snow,Light Snow,0,2014-02-16 06:34:00
1:54 AM,11.3,8.4,88,30.00,1.5,East,3.5,-,N/A,Snow,Light Snow,90,2014-02-16 06:54:00
2:15 AM,11.5,8.6,88,30.00,1.8,East,3.5,-,N/A,Snow,Light Snow,80,2014-02-16 07:15:00
2:34 AM,11.3,8.4,88,30.00,1.8,ENE,3.5,-,N/A,Snow,Light Snow,70,2014-02-16 07:34:00
2:54 AM,11.1,8.2,88,30.00,1.8,NE,4.6,-,N/A,Snow,Light Snow,50,2014-02-16 07:54:00
3:15 AM,11.1,8.1,87,30.00,1.8,ENE,3.5,-,N/A,Snow,Light Snow,70,2014-02-16 08:15:00
3:34 AM,11.1,8.2,88,30.00,1.8,ENE,4.6,-,N/A,Snow,Light Snow,70,2014-02-16 08:34:00
3:55 AM,11.3,8.2,87,30.00,2.0,East,4.6,-,N/A,Snow,Light Snow,80,2014-02-16 08:55:00
4:15 AM,10.9,7.9,87,30.01,3.0,ENE,3.5,-,N/A,Snow,Light Snow,60,2014-02-16 09:15:00
4:34 AM,11.1,8.1,87,30.00,3.0,ENE,3.5,-,N/A,Snow,Light Snow,70,2014-02-16 09:34:00
4:55 AM,10.8,7.7,87,30.01,3.0,ENE,3.5,-,N/A,Snow,Light Snow,70,2014-02-16 09:55:00
5:14 AM,10.4,7.5,88,30.01,4.0,ENE,3.5,-,N/A,Snow,Light Snow,70,2014-02-16 10:14:00
5:34 AM,10.6,7.5,87,30.02,5.0,NE,3.5,-,N/A,,Overcast,50,2014-02-16 10:34:00
5:55 AM,10.8,7.5,87,30.02,3.0,NE,3.5,-,N/A,Snow,Light Snow,40,2014-02-16 10:55:00
6:14 AM,10.8,7.5,87,30.02,3.0,ENE,3.5,-,N/A,Snow,Light Snow,60,2014-02-16 11:14:00
6:34 AM,10.4,7.3,87,30.03,4.0,East,4.6,-,N/A,Snow,Light Snow,80,2014-02-16 11:34:00
6:55 AM,10.2,6.8,86,30.04,4.0,Calm,Calm,-,N/A,Snow,Light Snow,0,2014-02-16 11:55:00
7:14 AM,9.9,6.8,87,30.05,3.0,Calm,Calm,-,N/A,Snow,Light Snow,0,2014-02-16 12:14:00
7:34 AM,9.0,5.9,87,30.05,10.0,NNE,4.6,-,N/A,,Scattered Clouds,30,2014-02-16 12:34:00
7:55 AM,7.3,4.3,87,30.07,10.0,Calm,Calm,-,N/A,,Clear,0,2014-02-16 12:55:00
8:14 AM,6.6,3.7,88,30.08,2.5,NNE,3.5,-,N/A,Snow,Light Snow,30,2014-02-16 13:14:00
8:34 AM,7.2,3.9,87,30.10,10.0,Calm,Calm,-,N/A,,Clear,0,2014-02-16 13:34:00
8:55 AM,5.7,1.9,84,30.11,10.0,NNW,3.5,-,N/A,,Clear,340,2014-02-16 13:55:00
9:14 AM,5.2,1.2,84,30.13,10.0,NNW,3.5,-,N/A,,Clear,340,2014-02-16 14:14:00
9:34 AM,4.1,-0.0,83,30.14,10.0,North,5.8,-,N/A,,Clear,360,2014-02-16 14:34:00
9:55 AM,6.8,2.3,82,30.14,7.0,Calm,Calm,-,N/A,Snow,Light Snow,0,2014-02-16 14:55:00
10:14 AM,6.3,0.5,77,30.15,10.0,NNW,4.6,-,N/A,,Clear,340,2014-02-16 15:14:00
10:35 AM,6.6,1.9,81,30.16,10.0,North,5.8,-,N/A,,Clear,350,2014-02-16 15:35:00
10:55 AM,8.4,3.2,79,30.17,10.0,NNW,4.6,-,N/A,,Clear,340,2014-02-16 15:55:00
11:14 AM,9.7,4.3,79,30.18,10.0,North,8.1,-,N/A,,Clear,350,2014-02-16 16:14:00
11:35 AM,11.1,5.0,76,30.19,10.0,NNW,4.6,-,N/A,,Clear,340,2014-02-16 16:35:00
11:54 AM,11.3,5.7,78,30.19,10.0,North,8.1,-,N/A,,Clear,360,2014-02-16 16:54:00
12:14 PM,11.5,5.9,78,30.20,10.0,North,6.9,-,N/A,,Clear,360,2014-02-16 17:14:00
12:35 PM,11.5,5.9,78,30.20,10.0,North,10.4,-,N/A,,Clear,360,2014-02-16 17:35:00
12:54 PM,11.8,5.9,77,30.20,10.0,North,9.2,-,N/A,,Clear,360,2014-02-16 17:54:00
1:14 PM,12.0,6.1,77,30.20,10.0,North,11.5,-,N/A,,Clear,360,2014-02-16 18:14:00
1:35 PM,11.7,5.7,77,30.20,10.0,North,10.4,-,N/A,,Clear,360,2014-02-16 18:35:00
1:54 PM,12.0,5.7,76,30.21,10.0,North,9.2,-,N/A,,Clear,350,2014-02-16 18:54:00
2:15 PM,12.4,5.7,75,30.21,10.0,North,6.9,-,N/A,,Clear,10,2014-02-16 19:15:00
2:35 PM,12.9,5.7,73,30.22,10.0,North,5.8,-,N/A,,Clear,350,2014-02-16 19:35:00
2:54 PM,12.9,5.4,72,30.23,10.0,North,8.1,-,N/A,,Clear,350,2014-02-16 19:54:00
3:15 PM,12.2,4.8,72,30.24,10.0,NNW,9.2,-,N/A,,Clear,340,2014-02-16 20:15:00
3:34 PM,12.0,5.0,73,30.25,10.0,NNW,6.9,-,N/A,,Clear,340,2014-02-16 20:34:00
3:54 PM,12.0,4.8,73,30.26,10.0,NNW,6.9,-,N/A,,Clear,340,2014-02-16 20:54:00
4:15 PM,12.2,4.8,72,30.26,10.0,NNW,4.6,-,N/A,,Clear,330,2014-02-16 21:15:00
4:34 PM,11.7,4.5,73,30.27,10.0,NNW,3.5,-,N/A,,Clear,340,2014-02-16 21:34:00
4:54 PM,11.5,3.9,72,30.27,10.0,NNW,3.5,-,N/A,,Clear,340,2014-02-16 21:54:00
5:15 PM,11.3,3.2,70,30.28,10.0,North,3.5,-,N/A,,Clear,350,2014-02-16 22:15:00
5:34 PM,10.8,2.8,70,30.29,10.0,North,3.5,-,N/A,,Clear,360,2014-02-16 22:34:00
5:54 PM,10.4,2.7,71,30.30,10.0,Calm,Calm,-,N/A,,Clear,0,2014-02-16 22:54:00
6:15 PM,8.2,1.0,72,30.30,10.0,Calm,Calm,-,N/A,,Clear,0,2014-02-16 23:15:00
6:34 PM,7.3,1.6,77,30.32,10.0,Calm,Calm,-,N/A,,Clear,0,2014-02-16 23:34:00
6:52 PM,4.3,-0.4,81,30.32,10.0,Calm,Calm,-,N/A,,Clear,0,2014-02-16 23:52:00
7:14 PM,2.3,-1.8,83,30.33,10.0,Calm,Calm,-,N/A,,Clear,0,2014-02-17 00:14:00
7:34 PM,1.6,-2.2,84,30.34,10.0,Calm,Calm,-,N/A,,Clear,0,2014-02-17 00:34:00
7:55 PM,0.3,-3.1,85,30.34,10.0,Calm,Calm,-,N/A,,Clear,0,2014-02-17 00:55:00
8:14 PM,-1.8,-5.8,83,30.33,10.0,Calm,Calm,-,N/A,,Clear,0,2014-02-17 01:14:00
8:34 PM,-1.1,-4.9,84,30.33,10.0,ESE,3.5,-,N/A,,Clear,120,2014-02-17 01:34:00
8:55 PM,-2.4,-6.0,85,30.33,10.0,Calm,Calm,-,N/A,,Clear,0,2014-02-17 01:55:00
9:14 PM,-2.7,-6.5,84,30.33,10.0,Calm,Calm,-,N/A,,Clear,0,2014-02-17 02:14:00
9:34 PM,-1.7,-5.3,85,30.34,10.0,Calm,Calm,-,N/A,,Clear,0,2014-02-17 02:34:00
9:55 PM,-3.3,-7.4,82,30.34,10.0,Calm,Calm,-,N/A,,Clear,0,2014-02-17 02:55:00
10:14 PM,-3.3,-7.1,84,30.35,10.0,SE,3.5,-,N/A,,Clear,130,2014-02-17 03:14:00
10:35 PM,-4.5,-8.7,82,30.35,10.0,Calm,Calm,-,N/A,,Clear,0,2014-02-17 03:35:00
10:55 PM,-6.7,-11.2,81,30.34,10.0,ESE,3.5,-,N/A,,Clear,110,2014-02-17 03:55:00
11:14 PM,-4.2,-8.1,83,30.33,7.0,ESE,5.8,-,N/A,,Clear,120,2014-02-17 04:14:00
11:35 PM,-6.0,-10.5,81,30.34,10.0,ESE,4.6,-,N/A,,Clear,120,2014-02-17 04:35:00
11:55 PM,-5.8,-9.9,82,30.34,10.0,SE,4.6,-,N/A,,Clear,140,2014-02-17 04:55:00